{"data":{"norad_id":85434,"epoch":"2026-05-07T03:29:59.999712Z","epoch_age_seconds":1621627,"freshness":"OLD","line1":"1 85434U          26127.14583333  .00000007  00000+0  00000+0 0  9997","line2":"2 85434  54.9920 209.4130 0002620 267.5690 175.2310  2.00599881    11","mean_motion":2.00599881,"eccentricity":0.000262,"inclination_deg":54.992,"raan_deg":209.413,"arg_perigee_deg":267.569,"mean_anomaly_deg":175.231,"bstar":0,"rev_number":1,"period_min":717.84688645952,"perigee_km":20172.050587674,"apogee_km":20185.966531947,"semimajor_km":26557.145559811,"source":"CELESTRAK","updated_at":"2026-05-25T13:38:11.434376Z"}}